Private Wetterstation Sandau
Wetterdaten: Sonntag, 22.01.2012
Datum Zeit Temp. A. Feuchte A. Luftdruck Regen Wind Richtung Richtung Taupunkt Windchill
22.01.2012 00:02 3,9 C 90 % 996,5 hPa 0,0 l/m 7,9 km/h (2 Bft) W-NW 292 2,4 C 1,9 C
22.01.2012 00:07 3,9 C 90 % 996,4 hPa 0,0 l/m 13,0 km/h (3 Bft) SW 225 2,4 C 0,7 C
22.01.2012 00:12 3,9 C 90 % 996,7 hPa 0,0 l/m 16,6 km/h (3 Bft) W-SW 247 2,4 C 0,1 C
22.01.2012 00:17 3,9 C 90 % 996,5 hPa 0,0 l/m 18,0 km/h (3 Bft) W-SW 247 2,4 C -0,1 C
22.01.2012 00:22 3,9 C 90 % 996,5 hPa 0,0 l/m 16,9 km/h (3 Bft) W 270 2,4 C 0,1 C
22.01.2012 00:27 3,9 C 90 % 996,5 hPa 0,0 l/m 16,9 km/h (3 Bft) W-SW 247 2,4 C 0,1 C
22.01.2012 00:32 3,9 C 90 % 996,7 hPa 0,0 l/m 20,2 km/h (4 Bft) W-SW 247 2,4 C -0,3 C
22.01.2012 00:37 3,9 C 90 % 996,6 hPa 0,0 l/m 14,8 km/h (3 Bft) SW 225 2,4 C 0,4 C
22.01.2012 00:42 3,9 C 90 % 996,5 hPa 0,0 l/m 17,6 km/h (3 Bft) SW 225 2,4 C 0,0 C
22.01.2012 00:47 3,9 C 90 % 996,5 hPa 0,0 l/m 14,4 km/h (3 Bft) W 270 2,4 C 0,5 C
22.01.2012 00:52 3,9 C 90 % 996,7 hPa 0,0 l/m 10,4 km/h (2 Bft) W 270 2,4 C 1,3 C
22.01.2012 00:57 3,9 C 90 % 996,7 hPa 0,0 l/m 19,1 km/h (3 Bft) SW 225 2,4 C -0,2 C
22.01.2012 01:02 3,9 C 90 % 996,7 hPa 0,0 l/m 21,2 km/h (4 Bft) W 270 2,4 C -0,5 C
22.01.2012 01:07 4,1 C 90 % 996,5 hPa 0,0 l/m 24,8 km/h (4 Bft) SW 225 2,6 C -0,6 C
22.01.2012 01:12 4,1 C 90 % 996,5 hPa 0,0 l/m 31,7 km/h (5 Bft) SW 225 2,6 C -1,3 C
22.01.2012 01:17 4,1 C 90 % 996,4 hPa 0,0 l/m 18,4 km/h (3 Bft) W-SW 247 2,6 C 0,1 C
22.01.2012 01:22 4,1 C 90 % 996,5 hPa 0,0 l/m 13,0 km/h (3 Bft) W-SW 247 2,6 C 1,0 C
22.01.2012 01:27 4,1 C 90 % 996,4 hPa 0,0 l/m 14,4 km/h (3 Bft) W-NW 292 2,6 C 0,7 C
22.01.2012 01:32 4,1 C 90 % 996,4 hPa 0,5 l/m 23,0 km/h (4 Bft) W-SW 247 2,6 C -0,4 C
22.01.2012 01:37 4,1 C 90 % 996,4 hPa 0,0 l/m 6,8 km/h (2 Bft) W-SW 247 2,6 C 2,4 C
22.01.2012 01:42 4,2 C 90 % 996,4 hPa 0,0 l/m 13,3 km/h (3 Bft) W-SW 247 2,7 C 1,0 C
22.01.2012 01:47 4,2 C 90 % 996,4 hPa 0,0 l/m 24,5 km/h (4 Bft) SW 225 2,7 C -0,5 C
22.01.2012 01:52 4,2 C 90 % 996,5 hPa 0,0 l/m 14,8 km/h (3 Bft) W 270 2,7 C 0,8 C
22.01.2012 01:57 4,1 C 90 % 996,6 hPa 0,0 l/m 21,6 km/h (4 Bft) N-NW 337 2,6 C -0,3 C
22.01.2012 02:02 4,2 C 90 % 996,4 hPa 0,0 l/m 12,6 km/h (3 Bft) NW 315 2,7 C 1,2 C
22.01.2012 02:07 4,3 C 90 % 996,4 hPa 0,0 l/m 25,2 km/h (4 Bft) W-SW 247 2,8 C -0,4 C
22.01.2012 02:12 4,3 C 89 % 996,5 hPa 0,0 l/m 15,5 km/h (3 Bft) W-SW 247 2,7 C 0,8 C
22.01.2012 02:17 4,3 C 89 % 996,5 hPa 0,0 l/m 16,6 km/h (3 Bft) W 270 2,7 C 0,6 C
22.01.2012 02:22 4,3 C 89 % 996,7 hPa 0,0 l/m 13,7 km/h (3 Bft) SW 225 2,7 C 1,1 C
22.01.2012 02:27 4,2 C 89 % 996,7 hPa 0,0 l/m 16,9 km/h (3 Bft) W 270 2,6 C 0,5 C
22.01.2012 02:32 4,2 C 88 % 996,6 hPa 0,0 l/m 10,8 km/h (2 Bft) W 270 2,4 C 1,5 C
22.01.2012 02:37 4,2 C 88 % 996,8 hPa 0,0 l/m 10,1 km/h (2 Bft) W-SW 247 2,4 C 1,7 C
22.01.2012 02:42 4,2 C 88 % 996,9 hPa 0,0 l/m 12,2 km/h (2 Bft) W-SW 247 2,4 C 1,2 C
22.01.2012 02:47 4,1 C 88 % 996,9 hPa 0,0 l/m 13,7 km/h (3 Bft) W 270 2,3 C 0,9 C
22.01.2012 02:52 4,1 C 88 % 997,0 hPa 0,0 l/m 16,9 km/h (3 Bft) W 270 2,3 C 0,3 C
22.01.2012 02:57 4,1 C 88 % 997,1 hPa 0,0 l/m 14,8 km/h (3 Bft) W-NW 292 2,3 C 0,7 C
22.01.2012 03:02 4,1 C 88 % 997,1 hPa 0,0 l/m 14,4 km/h (3 Bft) W 270 2,3 C 0,7 C
22.01.2012 03:07 4,1 C 87 % 997,2 hPa 0,0 l/m 13,0 km/h (3 Bft) W-NW 292 2,1 C 1,0 C
22.01.2012 03:12 4,1 C 88 % 997,2 hPa 0,0 l/m 8,6 km/h (2 Bft) W-NW 292 2,3 C 1,9 C
22.01.2012 03:17 4,1 C 88 % 997,3 hPa 0,0 l/m 17,3 km/h (3 Bft) W-SW 247 2,3 C 0,3 C
22.01.2012 03:22 4,1 C 88 % 997,2 hPa 0,0 l/m 19,4 km/h (3 Bft) W-NW 292 2,3 C 0,0 C
22.01.2012 03:27 3,9 C 88 % 997,0 hPa 0,0 l/m 6,5 km/h (2 Bft) O-SO 112 2,1 C 2,3 C
22.01.2012 03:32 3,9 C 88 % 997,1 hPa 0,0 l/m 15,1 km/h (3 Bft) W 270 2,1 C 0,4 C
22.01.2012 03:37 3,9 C 88 % 997,1 hPa 0,0 l/m 18,0 km/h (3 Bft) W-NW 292 2,1 C -0,1 C
22.01.2012 03:42 3,9 C 88 % 997,2 hPa 0,0 l/m 20,2 km/h (4 Bft) W 270 2,1 C -0,3 C
22.01.2012 03:47 3,9 C 88 % 997,3 hPa 0,0 l/m 18,4 km/h (3 Bft) W 270 2,1 C -0,1 C
22.01.2012 03:52 3,9 C 87 % 997,0 hPa 0,0 l/m 18,0 km/h (3 Bft) W 270 1,9 C -0,1 C
22.01.2012 03:57 3,9 C 87 % 997,1 hPa 0,0 l/m 26,6 km/h (4 Bft) W 270 1,9 C -1,1 C
22.01.2012 04:02 3,9 C 88 % 997,2 hPa 0,0 l/m 25,6 km/h (4 Bft) W-SW 247 2,1 C -1,0 C
22.01.2012 04:07 3,9 C 88 % 997,2 hPa 0,0 l/m 14,4 km/h (3 Bft) W-SW 247 2,1 C 0,5 C
22.01.2012 04:12 3,9 C 88 % 997,3 hPa 0,0 l/m 15,1 km/h (3 Bft) W-SW 247 2,1 C 0,4 C
22.01.2012 04:17 3,9 C 88 % 997,1 hPa 0,0 l/m 15,8 km/h (3 Bft) W 270 2,1 C 0,3 C
22.01.2012 04:22 3,9 C 88 % 997,2 hPa 0,0 l/m 25,9 km/h (4 Bft) W-SW 247 2,1 C -1,0 C
22.01.2012 04:27 3,9 C 88 % 997,2 hPa 0,0 l/m 20,9 km/h (4 Bft) W-SW 247 2,1 C -0,4 C
22.01.2012 04:32 3,9 C 88 % 997,1 hPa 0,0 l/m 9,4 km/h (2 Bft) W-SW 247 2,1 C 1,5 C
22.01.2012 04:37 4,1 C 88 % 997,0 hPa 0,0 l/m 7,2 km/h (2 Bft) W-SW 247 2,3 C 2,3 C
22.01.2012 04:42 4,1 C 88 % 997,1 hPa 0,0 l/m 10,1 km/h (2 Bft) W-NW 292 2,3 C 1,6 C
22.01.2012 04:47 4,2 C 88 % 997,2 hPa 0,0 l/m 16,9 km/h (3 Bft) W 270 2,4 C 0,5 C
22.01.2012 04:52 4,3 C 89 % 997,4 hPa 0,5 l/m 15,1 km/h (3 Bft) NW 315 2,7 C 0,9 C
22.01.2012 04:57 4,4 C 89 % 997,2 hPa 0,0 l/m 9,4 km/h (2 Bft) W-SW 247 2,7 C 2,1 C
22.01.2012 05:02 4,4 C 89 % 997,2 hPa 0,0 l/m 10,1 km/h (2 Bft) W 270 2,7 C 1,9 C
22.01.2012 05:07 4,4 C 89 % 997,4 hPa 0,0 l/m 21,6 km/h (4 Bft) W 270 2,7 C 0,1 C
22.01.2012 05:12 4,4 C 89 % 997,4 hPa 0,0 l/m 25,2 km/h (4 Bft) W-NW 292 2,7 C -0,3 C
22.01.2012 05:17 4,5 C 88 % 997,4 hPa 0,0 l/m 15,5 km/h (3 Bft) W 270 2,7 C 1,1 C
22.01.2012 05:22 4,5 C 88 % 997,2 hPa 0,0 l/m 7,6 km/h (2 Bft) W 270 2,7 C 2,7 C
22.01.2012 05:27 4,4 C 88 % 997,4 hPa 0,0 l/m 13,0 km/h (3 Bft) W 270 2,6 C 1,3 C
22.01.2012 05:32 4,5 C 88 % 997,2 hPa 0,0 l/m 11,2 km/h (2 Bft) W-SW 247 2,7 C 1,8 C
22.01.2012 05:37 4,5 C 88 % 997,2 hPa 0,0 l/m 9,4 km/h (2 Bft) W-SW 247 2,7 C 2,2 C
22.01.2012 05:42 4,5 C 88 % 997,1 hPa 0,0 l/m 27,4 km/h (4 Bft) W-SW 247 2,7 C -0,4 C
22.01.2012 05:47 4,4 C 88 % 997,4 hPa 0,0 l/m 19,8 km/h (3 Bft) W-SW 247 2,6 C 0,3 C
22.01.2012 05:52 4,4 C 88 % 997,5 hPa 0,0 l/m 19,1 km/h (3 Bft) W-NW 292 2,6 C 0,4 C
22.01.2012 05:57 4,5 C 88 % 997,3 hPa 0,0 l/m 16,2 km/h (3 Bft) W 270 2,7 C 0,9 C
22.01.2012 06:02 4,5 C 88 % 997,3 hPa 0,0 l/m 22,3 km/h (4 Bft) W-SW 247 2,7 C 0,2 C
22.01.2012 06:07 4,5 C 88 % 997,2 hPa 0,0 l/m 23,4 km/h (4 Bft) W-SW 247 2,7 C 0,0 C
22.01.2012 06:12 4,5 C 88 % 997,1 hPa 0,0 l/m 20,9 km/h (4 Bft) W 270 2,7 C 0,3 C
22.01.2012 06:17 4,4 C 88 % 997,1 hPa 0,5 l/m 14,4 km/h (3 Bft) W-NW 292 2,6 C 1,1 C
22.01.2012 06:22 4,5 C 88 % 997,2 hPa 0,0 l/m 20,2 km/h (4 Bft) S-SW 202 2,7 C 0,4 C
22.01.2012 06:27 4,5 C 88 % 996,9 hPa 0,0 l/m 10,8 km/h (2 Bft) W-SW 247 2,7 C 1,9 C
22.01.2012 06:32 4,5 C 88 % 997,1 hPa 0,0 l/m 22,7 km/h (4 Bft) W 270 2,7 C 0,1 C
22.01.2012 06:37 4,5 C 89 % 997,3 hPa 0,0 l/m 20,5 km/h (4 Bft) W 270 2,8 C 0,4 C
22.01.2012 06:42 4,6 C 88 % 997,2 hPa 0,0 l/m 15,5 km/h (3 Bft) W-SW 247 2,8 C 1,2 C
22.01.2012 06:47 4,6 C 88 % 997,2 hPa 0,0 l/m 14,0 km/h (3 Bft) W-NW 292 2,8 C 1,4 C
22.01.2012 06:52 4,7 C 88 % 997,2 hPa 0,0 l/m 11,9 km/h (2 Bft) W-SW 247 2,9 C 1,9 C
22.01.2012 06:57 4,7 C 88 % 997,3 hPa 0,0 l/m 9,7 km/h (2 Bft) W 270 2,9 C 2,4 C
22.01.2012 07:02 4,7 C 88 % 997,2 hPa 0,0 l/m 31,7 km/h (5 Bft) W 270 2,9 C -0,5 C
22.01.2012 07:07 4,8 C 88 % 997,4 hPa 0,0 l/m 10,1 km/h (2 Bft) NW 315 3,0 C 2,4 C
22.01.2012 07:12 4,8 C 88 % 997,2 hPa 0,0 l/m 18,4 km/h (3 Bft) W-SW 247 3,0 C 1,0 C
22.01.2012 07:17 4,8 C 88 % 997,4 hPa 0,0 l/m 27,4 km/h (4 Bft) W-SW 247 3,0 C 0,0 C
22.01.2012 07:22 4,8 C 88 % 997,5 hPa 0,0 l/m 19,8 km/h (3 Bft) W 270 3,0 C 0,8 C
22.01.2012 07:27 4,8 C 89 % 997,3 hPa 0,0 l/m 18,7 km/h (3 Bft) W 270 3,1 C 1,0 C
22.01.2012 07:32 4,8 C 89 % 997,5 hPa 0,0 l/m 13,3 km/h (3 Bft) W-SW 247 3,1 C 1,8 C
22.01.2012 07:37 4,9 C 89 % 997,4 hPa 0,0 l/m 17,3 km/h (3 Bft) W-NW 292 3,2 C 1,3 C
22.01.2012 07:42 4,9 C 89 % 997,5 hPa 0,0 l/m 14,8 km/h (3 Bft) SW 225 3,2 C 1,7 C
22.01.2012 07:47 4,9 C 88 % 997,6 hPa 0,0 l/m 15,8 km/h (3 Bft) W 270 3,1 C 1,5 C
22.01.2012 07:52 4,9 C 88 % 997,5 hPa 0,0 l/m 12,2 km/h (2 Bft) W 270 3,1 C 2,1 C
22.01.2012 07:57 5,0 C 88 % 997,5 hPa 0,0 l/m 28,4 km/h (4 Bft) W-SW 247 3,2 C 0,2 C
22.01.2012 08:02 5,1 C 88 % 997,3 hPa 0,0 l/m 25,2 km/h (4 Bft) W-SW 247 3,3 C 0,6 C
22.01.2012 08:07 5,1 C 87 % 997,6 hPa 0,0 l/m 12,2 km/h (2 Bft) W 270 3,1 C 2,3 C
22.01.2012 08:12 5,2 C 87 % 997,6 hPa 0,0 l/m 23,4 km/h (4 Bft) SW 225 3,2 C 0,9 C
22.01.2012 08:17 5,3 C 86 % 997,3 hPa 0,0 l/m 23,8 km/h (4 Bft) NW 315 3,2 C 1,0 C
22.01.2012 08:22 5,3 C 86 % 997,5 hPa 0,0 l/m 26,6 km/h (4 Bft) W-NW 292 3,2 C 0,7 C
22.01.2012 08:27 5,3 C 86 % 997,5 hPa 0,0 l/m 25,6 km/h (4 Bft) W-SW 247 3,2 C 0,8 C
22.01.2012 08:32 5,3 C 86 % 997,4 hPa 0,0 l/m 23,0 km/h (4 Bft) W-SW 247 3,2 C 1,1 C
22.01.2012 08:37 5,3 C 86 % 997,6 hPa 0,0 l/m 22,7 km/h (4 Bft) W 270 3,2 C 1,1 C
22.01.2012 08:42 5,2 C 86 % 997,6 hPa 0,0 l/m 19,1 km/h (3 Bft) S-SW 202 3,1 C 1,4 C
22.01.2012 08:47 5,2 C 86 % 997,8 hPa 0,0 l/m 25,6 km/h (4 Bft) SW 225 3,1 C 0,7 C
22.01.2012 08:52 5,2 C 86 % 997,6 hPa 0,0 l/m 14,8 km/h (3 Bft) W 270 3,1 C 2,0 C
22.01.2012 08:57 5,2 C 86 % 997,7 hPa 0,0 l/m 17,3 km/h (3 Bft) W-NW 292 3,1 C 1,7 C
22.01.2012 09:02 5,2 C 85 % 997,7 hPa 0,0 l/m 19,1 km/h (3 Bft) SW 225 2,9 C 1,4 C
22.01.2012 09:07 5,1 C 85 % 997,8 hPa 0,0 l/m 16,2 km/h (3 Bft) W 270 2,8 C 1,7 C
22.01.2012 09:12 5,1 C 85 % 997,5 hPa 0,0 l/m 23,4 km/h (4 Bft) W 270 2,8 C 0,8 C
22.01.2012 09:17 5,1 C 86 % 997,6 hPa 0,0 l/m 34,9 km/h (5 Bft) W-SW 247 3,0 C -0,2 C
22.01.2012 09:22 5,1 C 86 % 997,6 hPa 0,0 l/m 32,4 km/h (5 Bft) W-SW 247 3,0 C -0,0 C
22.01.2012 09:27 5,2 C 86 % 997,5 hPa 0,0 l/m 29,5 km/h (5 Bft) NW 315 3,1 C 0,4 C
22.01.2012 09:32 5,2 C 86 % 997,7 hPa 0,0 l/m 15,1 km/h (3 Bft) W-NW 292 3,1 C 2,0 C
22.01.2012 09:37 5,3 C 85 % 997,6 hPa 0,0 l/m 32,0 km/h (5 Bft) W-SW 247 3,0 C 0,3 C
22.01.2012 09:42 5,3 C 85 % 997,7 hPa 0,0 l/m 20,9 km/h (4 Bft) W-SW 247 3,0 C 1,3 C
22.01.2012 09:47 5,3 C 85 % 997,7 hPa 0,0 l/m 11,2 km/h (2 Bft) W-SW 247 3,0 C 2,8 C
22.01.2012 09:52 5,3 C 85 % 997,7 hPa 0,0 l/m 28,8 km/h (4 Bft) W-SW 247 3,0 C 0,5 C
22.01.2012 09:57 5,4 C 85 % 997,7 hPa 0,0 l/m 41,8 km/h (6 Bft) W-SW 247 3,1 C -0,3 C
22.01.2012 10:02 5,4 C 84 % 997,9 hPa 0,0 l/m 29,5 km/h (5 Bft) W-SW 247 2,9 C 0,6 C
22.01.2012 10:07 5,4 C 84 % 998,0 hPa 0,0 l/m 12,6 km/h (3 Bft) W 270 2,9 C 2,6 C
22.01.2012 10:12 5,4 C 84 % 997,8 hPa 0,0 l/m 15,5 km/h (3 Bft) W 270 2,9 C 2,2 C
22.01.2012 10:17 5,5 C 84 % 997,9 hPa 0,0 l/m 17,6 km/h (3 Bft) SW 225 3,0 C 2,0 C
22.01.2012 10:22 5,5 C 84 % 997,7 hPa 0,0 l/m 19,8 km/h (3 Bft) W-NW 292 3,0 C 1,7 C
22.01.2012 10:27 5,5 C 84 % 997,9 hPa 0,0 l/m 12,6 km/h (3 Bft) W 270 3,0 C 2,8 C
22.01.2012 10:32 5,6 C 84 % 997,8 hPa 0,0 l/m 14,8 km/h (3 Bft) W-SW 247 3,1 C 2,5 C
22.01.2012 10:37 5,6 C 84 % 997,8 hPa 0,0 l/m 27,4 km/h (4 Bft) W-SW 247 3,1 C 1,1 C
22.01.2012 10:42 5,6 C 84 % 998,0 hPa 0,0 l/m 22,7 km/h (4 Bft) W-SW 247 3,1 C 1,5 C
22.01.2012 10:47 5,6 C 84 % 998,0 hPa 0,0 l/m 25,2 km/h (4 Bft) W-NW 292 3,1 C 1,3 C
22.01.2012 10:52 5,6 C 84 % 998,0 hPa 0,0 l/m 15,1 km/h (3 Bft) S-SW 202 3,1 C 2,5 C
22.01.2012 10:57 5,7 C 83 % 997,9 hPa 0,0 l/m 21,6 km/h (4 Bft) SW 225 3,0 C 1,8 C
22.01.2012 11:02 5,8 C 83 % 997,9 hPa 0,0 l/m 13,0 km/h (3 Bft) W 270 3,1 C 3,1 C
22.01.2012 11:07 5,8 C 83 % 998,0 hPa 0,0 l/m 13,7 km/h (3 Bft) NW 315 3,1 C 2,9 C
22.01.2012 11:12 5,9 C 83 % 998,0 hPa 0,0 l/m 25,6 km/h (4 Bft) W-NW 292 3,2 C 1,6 C
22.01.2012 11:17 6,0 C 83 % 998,0 hPa 0,0 l/m 24,1 km/h (4 Bft) W 270 3,3 C 1,9 C
22.01.2012 11:22 6,1 C 82 % 998,0 hPa 0,0 l/m 21,2 km/h (4 Bft) W-NW 292 3,3 C 2,3 C
22.01.2012 11:27 6,2 C 81 % 998,0 hPa 0,0 l/m 18,0 km/h (3 Bft) W-NW 292 3,2 C 2,8 C
22.01.2012 11:32 6,3 C 81 % 998,1 hPa 0,0 l/m 26,6 km/h (4 Bft) W-NW 292 3,3 C 2,0 C
22.01.2012 11:37 6,3 C 81 % 998,0 hPa 0,0 l/m 35,3 km/h (5 Bft) W 270 3,3 C 1,3 C
22.01.2012 11:42 6,3 C 81 % 998,1 hPa 0,0 l/m 29,5 km/h (5 Bft) W 270 3,3 C 1,8 C
22.01.2012 11:47 6,3 C 81 % 998,0 hPa 0,0 l/m 36,0 km/h (5 Bft) W-SW 247 3,3 C 1,3 C
22.01.2012 11:52 6,4 C 81 % 998,0 hPa 0,0 l/m 29,2 km/h (5 Bft) SW 225 3,4 C 1,9 C
22.01.2012 11:57 6,4 C 81 % 997,9 hPa 0,0 l/m 14,4 km/h (3 Bft) NW 315 3,4 C 3,6 C
22.01.2012 12:02 6,4 C 81 % 998,2 hPa 0,0 l/m 31,7 km/h (5 Bft) W-NW 292 3,4 C 1,7 C
22.01.2012 12:07 6,3 C 80 % 998,0 hPa 0,0 l/m 12,2 km/h (2 Bft) W-SW 247 3,1 C 3,8 C
22.01.2012 12:12 6,3 C 80 % 997,9 hPa 0,0 l/m 24,1 km/h (4 Bft) W-NW 292 3,1 C 2,3 C
22.01.2012 12:17 6,3 C 80 % 997,8 hPa 0,0 l/m 27,0 km/h (4 Bft) W-SW 247 3,1 C 2,0 C
22.01.2012 12:22 6,4 C 80 % 998,2 hPa 0,0 l/m 24,5 km/h (4 Bft) W-NW 292 3,2 C 2,4 C
22.01.2012 12:27 6,4 C 80 % 998,1 hPa 0,0 l/m 35,6 km/h (5 Bft) W-SW 247 3,2 C 1,5 C
22.01.2012 12:32 6,4 C 79 % 998,1 hPa 0,0 l/m 39,6 km/h (6 Bft) W-NW 292 3,0 C 1,2 C
22.01.2012 12:37 6,3 C 80 % 997,9 hPa 0,0 l/m 19,1 km/h (3 Bft) W 270 3,1 C 2,8 C
22.01.2012 12:42 6,2 C 80 % 998,0 hPa 0,0 l/m 22,3 km/h (4 Bft) W 270 3,0 C 2,3 C
22.01.2012 12:47 6,2 C 81 % 997,8 hPa 0,0 l/m 19,8 km/h (3 Bft) W-SW 247 3,2 C 2,6 C
22.01.2012 12:52 6,1 C 81 % 997,8 hPa 0,0 l/m 22,7 km/h (4 Bft) W 270 3,1 C 2,2 C
22.01.2012 12:57 6,1 C 81 % 997,8 hPa 0,0 l/m 24,5 km/h (4 Bft) W 270 3,1 C 2,0 C
22.01.2012 13:02 6,1 C 81 % 997,7 hPa 0,0 l/m 28,1 km/h (4 Bft) W-NW 292 3,1 C 1,6 C
22.01.2012 13:07 6,1 C 81 % 997,7 hPa 0,0 l/m 14,0 km/h (3 Bft) W-NW 292 3,1 C 3,3 C
22.01.2012 13:12 6,1 C 81 % 997,8 hPa 0,0 l/m 19,4 km/h (3 Bft) W 270 3,1 C 2,5 C
22.01.2012 13:17 6,1 C 81 % 997,7 hPa 0,0 l/m 19,4 km/h (3 Bft) W-SW 247 3,1 C 2,5 C
22.01.2012 13:22 6,1 C 81 % 997,5 hPa 0,0 l/m 20,9 km/h (4 Bft) W-NW 292 3,1 C 2,4 C
22.01.2012 13:27 6,2 C 81 % 997,7 hPa 0,0 l/m 20,9 km/h (4 Bft) S-SW 202 3,2 C 2,5 C
22.01.2012 13:32 6,2 C 80 % 997,7 hPa 0,0 l/m 14,4 km/h (3 Bft) W 270 3,0 C 3,3 C
22.01.2012 13:37 6,3 C 80 % 997,6 hPa 0,0 l/m 11,2 km/h (2 Bft) W 270 3,1 C 4,0 C
22.01.2012 13:42 6,3 C 80 % 997,6 hPa 0,0 l/m 22,3 km/h (4 Bft) W 270 3,1 C 2,5 C
22.01.2012 13:47 6,3 C 80 % 997,6 hPa 0,0 l/m 18,0 km/h (3 Bft) W 270 3,1 C 2,9 C
22.01.2012 13:52 6,3 C 80 % 997,6 hPa 0,0 l/m 24,5 km/h (4 Bft) W 270 3,1 C 2,2 C
22.01.2012 13:57 6,3 C 81 % 997,7 hPa 0,0 l/m 19,1 km/h (3 Bft) W 270 3,3 C 2,8 C
22.01.2012 14:02 6,2 C 81 % 997,8 hPa 0,0 l/m 14,0 km/h (3 Bft) W 270 3,2 C 3,4 C
22.01.2012 14:07 6,2 C 81 % 997,7 hPa 0,0 l/m 29,5 km/h (5 Bft) W-NW 292 3,2 C 1,7 C
22.01.2012 14:12 6,2 C 81 % 997,6 hPa 0,0 l/m 18,0 km/h (3 Bft) W 270 3,2 C 2,8 C
22.01.2012 14:17 6,2 C 81 % 997,6 hPa 0,0 l/m 24,5 km/h (4 Bft) S-SW 202 3,2 C 2,1 C
22.01.2012 14:22 6,1 C 81 % 997,7 hPa 0,0 l/m 8,3 km/h (2 Bft) N-NW 337 3,1 C 4,4 C
22.01.2012 14:27 6,1 C 81 % 997,6 hPa 0,0 l/m 27,7 km/h (4 Bft) W-SW 247 3,1 C 1,7 C
22.01.2012 14:32 6,1 C 81 % 997,6 hPa 0,0 l/m 19,1 km/h (3 Bft) W-NW 292 3,1 C 2,6 C
22.01.2012 14:37 6,1 C 81 % 997,6 hPa 0,0 l/m 18,4 km/h (3 Bft) NW 315 3,1 C 2,6 C
22.01.2012 14:42 5,9 C 81 % 997,6 hPa 0,0 l/m 20,9 km/h (4 Bft) W 270 2,9 C 2,1 C
22.01.2012 14:47 5,9 C 81 % 997,6 hPa 0,0 l/m 16,9 km/h (3 Bft) W-SW 247 2,9 C 2,6 C
22.01.2012 14:52 5,9 C 82 % 997,6 hPa 0,0 l/m 16,6 km/h (3 Bft) W-SW 247 3,1 C 2,6 C
22.01.2012 14:57 5,9 C 82 % 997,6 hPa 0,0 l/m 17,3 km/h (3 Bft) W-SW 247 3,1 C 2,5 C
22.01.2012 15:02 5,9 C 82 % 997,6 hPa 0,0 l/m 15,1 km/h (3 Bft) W 270 3,1 C 2,8 C
22.01.2012 15:07 5,9 C 81 % 997,7 hPa 0,0 l/m 28,4 km/h (4 Bft) W-SW 247 2,9 C 1,4 C
22.01.2012 15:12 5,9 C 81 % 997,6 hPa 0,0 l/m 10,4 km/h (2 Bft) W-NW 292 2,9 C 3,7 C
22.01.2012 15:17 5,9 C 81 % 997,7 hPa 0,0 l/m 18,0 km/h (3 Bft) SW 225 2,9 C 2,4 C
22.01.2012 15:22 5,9 C 81 % 997,5 hPa 0,0 l/m 18,4 km/h (3 Bft) W-SW 247 2,9 C 2,4 C
22.01.2012 15:27 5,9 C 81 % 997,5 hPa 0,0 l/m 25,2 km/h (4 Bft) W-SW 247 2,9 C 1,7 C
22.01.2012 15:32 5,8 C 82 % 997,5 hPa 0,0 l/m 38,2 km/h (5 Bft) W-SW 247 3,0 C 0,5 C
22.01.2012 15:37 5,8 C 82 % 997,6 hPa 0,0 l/m 21,6 km/h (4 Bft) W-SW 247 3,0 C 1,9 C
22.01.2012 15:42 5,7 C 83 % 997,5 hPa 0,0 l/m 27,4 km/h (4 Bft) W-SW 247 3,0 C 1,2 C
22.01.2012 15:47 5,6 C 83 % 997,5 hPa 0,0 l/m 17,3 km/h (3 Bft) NW 315 2,9 C 2,2 C
22.01.2012 15:52 5,6 C 84 % 997,6 hPa 0,0 l/m 27,4 km/h (4 Bft) W-NW 292 3,1 C 1,1 C
22.01.2012 15:57 5,4 C 84 % 997,4 hPa 0,0 l/m 24,1 km/h (4 Bft) W-SW 247 2,9 C 1,1 C
22.01.2012 16:02 5,4 C 84 % 997,5 hPa 0,0 l/m 11,9 km/h (2 Bft) SW 225 2,9 C 2,8 C
22.01.2012 16:07 5,3 C 85 % 997,6 hPa 0,5 l/m 17,6 km/h (3 Bft) W-SW 247 3,0 C 1,7 C
22.01.2012 16:12 5,3 C 85 % 997,6 hPa 0,0 l/m 17,6 km/h (3 Bft) W-SW 247 3,0 C 1,7 C
22.01.2012 16:17 5,3 C 85 % 997,6 hPa 0,0 l/m 3,2 km/h (1 Bft) W 270 3,0 C 5,3 C
22.01.2012 16:22 5,3 C 86 % 997,4 hPa 0,0 l/m 7,2 km/h (2 Bft) W 270 3,2 C 3,7 C
22.01.2012 16:27 5,2 C 86 % 997,5 hPa 0,0 l/m 6,8 km/h (2 Bft) W-NW 292 3,1 C 3,7 C
22.01.2012 16:32 5,1 C 86 % 997,5 hPa 0,0 l/m 16,6 km/h (3 Bft) W 270 3,0 C 1,6 C
22.01.2012 16:37 5,1 C 86 % 997,5 hPa 0,0 l/m 16,9 km/h (3 Bft) W 270 3,0 C 1,6 C
22.01.2012 16:42 5,1 C 86 % 997,4 hPa 0,5 l/m 12,2 km/h (2 Bft) SW 225 3,0 C 2,3 C
22.01.2012 16:47 5,0 C 86 % 997,4 hPa 0,0 l/m 19,1 km/h (3 Bft) SW 225 2,9 C 1,2 C
22.01.2012 16:52 4,9 C 86 % 997,4 hPa 0,0 l/m 13,7 km/h (3 Bft) W 270 2,8 C 1,8 C
22.01.2012 16:57 4,9 C 86 % 997,4 hPa 0,0 l/m 19,1 km/h (3 Bft) SW 225 2,8 C 1,1 C
22.01.2012 17:02 4,8 C 86 % 997,3 hPa 0,0 l/m 19,8 km/h (3 Bft) W-SW 247 2,7 C 0,8 C
22.01.2012 17:07 4,8 C 87 % 997,3 hPa 0,0 l/m 25,6 km/h (4 Bft) W 270 2,8 C 0,2 C
22.01.2012 17:12 4,7 C 87 % 997,4 hPa 0,0 l/m 20,9 km/h (4 Bft) W 270 2,7 C 0,6 C
22.01.2012 17:17 4,6 C 87 % 997,2 hPa 0,0 l/m 13,3 km/h (3 Bft) W-SW 247 2,6 C 1,5 C
22.01.2012 17:22 4,6 C 87 % 997,3 hPa 0,5 l/m 11,2 km/h (2 Bft) W 270 2,6 C 1,9 C
22.01.2012 17:27 4,6 C 87 % 997,4 hPa 0,0 l/m 12,2 km/h (2 Bft) SW 225 2,6 C 1,7 C
22.01.2012 17:32 4,5 C 87 % 997,3 hPa 0,0 l/m 20,9 km/h (4 Bft) W-SW 247 2,5 C 0,3 C
22.01.2012 17:37 4,5 C 87 % 997,3 hPa 0,0 l/m 5,8 km/h (2 Bft) W 270 2,5 C 3,2 C
22.01.2012 17:42 4,4 C 87 % 997,5 hPa 0,0 l/m 11,2 km/h (2 Bft) W-SW 247 2,4 C 1,7 C
22.01.2012 17:47 4,4 C 88 % 997,4 hPa 0,0 l/m 8,6 km/h (2 Bft) W 270 2,6 C 2,3 C
22.01.2012 17:52 4,4 C 88 % 997,4 hPa 0,0 l/m 7,9 km/h (2 Bft) W 270 2,6 C 2,5 C
22.01.2012 17:57 4,4 C 88 % 997,4 hPa 0,0 l/m 16,2 km/h (3 Bft) S-SW 202 2,6 C 0,8 C
22.01.2012 18:02 4,4 C 88 % 997,3 hPa 0,0 l/m 22,3 km/h (4 Bft) W-SW 247 2,6 C 0,0 C
22.01.2012 18:07 4,3 C 88 % 997,2 hPa 0,0 l/m 19,8 km/h (3 Bft) W 270 2,5 C 0,2 C
22.01.2012 18:12 4,3 C 88 % 997,1 hPa 0,0 l/m 15,8 km/h (3 Bft) W 270 2,5 C 0,8 C
22.01.2012 18:17 4,2 C 88 % 997,2 hPa 0,0 l/m 5,0 km/h (1 Bft) W-SW 247 2,4 C 3,2 C
22.01.2012 18:22 4,2 C 88 % 997,2 hPa 0,0 l/m 15,5 km/h (3 Bft) W-SW 247 2,4 C 0,7 C
22.01.2012 18:27 4,2 C 88 % 997,2 hPa 0,0 l/m 5,0 km/h (1 Bft) W-SW 247 2,4 C 3,2 C
22.01.2012 18:32 4,2 C 88 % 997,2 hPa 0,5 l/m 9,4 km/h (2 Bft) W 270 2,4 C 1,8 C
22.01.2012 18:37 4,1 C 88 % 997,3 hPa 0,0 l/m 13,0 km/h (3 Bft) W-SW 247 2,3 C 1,0 C
22.01.2012 18:42 4,1 C 88 % 997,4 hPa 0,0 l/m 16,9 km/h (3 Bft) W-SW 247 2,3 C 0,3 C
22.01.2012 18:47 4,1 C 88 % 997,5 hPa 0,0 l/m 14,8 km/h (3 Bft) W-SW 247 2,3 C 0,7 C
22.01.2012 18:52 3,9 C 88 % 997,3 hPa 0,0 l/m 11,2 km/h (2 Bft) W-NW 292 2,1 C 1,1 C
22.01.2012 18:57 3,9 C 88 % 997,5 hPa 0,0 l/m 10,1 km/h (2 Bft) W 270 2,1 C 1,3 C
22.01.2012 19:02 3,8 C 88 % 997,6 hPa 0,0 l/m 16,9 km/h (3 Bft) W-NW 292 2,0 C -0,0 C
22.01.2012 19:07 3,8 C 88 % 997,6 hPa 0,0 l/m 3,2 km/h (1 Bft) W 270 2,0 C 3,8 C
22.01.2012 19:12 3,6 C 88 % 997,7 hPa 0,0 l/m 6,1 km/h (2 Bft) W 270 1,8 C 2,1 C
22.01.2012 19:17 3,6 C 88 % 997,7 hPa 0,0 l/m 4,3 km/h (1 Bft) W 270 1,8 C 3,6 C
22.01.2012 19:22 3,5 C 88 % 997,9 hPa 0,0 l/m 8,6 km/h (2 Bft) W-SW 247 1,7 C 1,2 C
22.01.2012 19:27 3,4 C 88 % 997,9 hPa 0,0 l/m 5,0 km/h (1 Bft) W 270 1,6 C 2,3 C
22.01.2012 19:32 3,4 C 88 % 998,0 hPa 0,0 l/m 5,0 km/h (1 Bft) W 270 1,6 C 2,3 C
22.01.2012 19:37 3,4 C 88 % 998,0 hPa 0,0 l/m 3,2 km/h (1 Bft) W 270 1,6 C 3,4 C
22.01.2012 19:42 3,3 C 88 % 998,2 hPa 0,0 l/m 3,6 km/h (1 Bft) W 270 1,5 C 3,3 C
22.01.2012 19:47 3,3 C 88 % 998,3 hPa 0,0 l/m 9,0 km/h (2 Bft) W 270 1,5 C 0,9 C
22.01.2012 19:52 3,3 C 89 % 998,3 hPa 0,0 l/m 4,0 km/h (1 Bft) W-NW 292 1,7 C 3,3 C
22.01.2012 19:57 3,3 C 89 % 998,7 hPa 0,0 l/m 5,0 km/h (1 Bft) W-NW 292 1,7 C 2,2 C
22.01.2012 20:02 3,3 C 89 % 998,7 hPa 0,0 l/m 7,2 km/h (2 Bft) W 270 1,7 C 1,4 C
22.01.2012 20:07 3,2 C 89 % 998,8 hPa 0,0 l/m 6,1 km/h (2 Bft) W-NW 292 1,6 C 1,6 C
22.01.2012 20:12 3,2 C 89 % 998,9 hPa 0,0 l/m 6,1 km/h (2 Bft) W-NW 292 1,6 C 1,6 C
22.01.2012 20:17 3,2 C 89 % 998,9 hPa 0,0 l/m 4,3 km/h (1 Bft) W-NW 292 1,6 C 3,2 C
22.01.2012 20:22 3,2 C 89 % 999,1 hPa 0,0 l/m 7,9 km/h (2 Bft) W-NW 292 1,6 C 1,0 C
22.01.2012 20:27 3,2 C 89 % 999,2 hPa 0,0 l/m 5,8 km/h (2 Bft) W-NW 292 1,6 C 1,7 C
22.01.2012 20:32 3,2 C 89 % 999,3 hPa 0,0 l/m 8,3 km/h (2 Bft) NW 315 1,6 C 0,9 C
22.01.2012 20:37 3,1 C 89 % 999,4 hPa 0,0 l/m 9,4 km/h (2 Bft) W 270 1,5 C 0,5 C
22.01.2012 20:42 3,1 C 89 % 999,5 hPa 0,0 l/m 7,9 km/h (2 Bft) NW 315 1,5 C 0,9 C
22.01.2012 20:47 3,1 C 89 % 999,7 hPa 0,0 l/m 2,2 km/h (1 Bft) N-NW 337 1,5 C 3,1 C
22.01.2012 20:52 3,1 C 89 % 999,7 hPa 0,0 l/m 6,8 km/h (2 Bft) NW 315 1,5 C 1,3 C
22.01.2012 20:57 3,1 C 89 % 999,9 hPa 0,0 l/m 10,4 km/h (2 Bft) W-NW 292 1,5 C 0,3 C
22.01.2012 21:02 3,1 C 89 % 1000,1 hPa 0,0 l/m 4,7 km/h (1 Bft) N-NW 337 1,5 C 2,1 C
22.01.2012 21:07 3,1 C 90 % 1000,3 hPa 0,0 l/m 3,2 km/h (1 Bft) N 360 1,6 C 3,1 C
22.01.2012 21:12 3,0 C 90 % 1000,5 hPa 0,0 l/m 9,4 km/h (2 Bft) N-NO 22 1,5 C 0,4 C
22.01.2012 21:17 3,0 C 90 % 1000,6 hPa 0,0 l/m 6,5 km/h (2 Bft) NO 45 1,5 C 1,2 C
22.01.2012 21:22 2,9 C 90 % 1000,7 hPa 0,0 l/m 7,6 km/h (2 Bft) N-NO 22 1,4 C 0,8 C
22.01.2012 21:27 2,9 C 90 % 1000,8 hPa 0,0 l/m 5,4 km/h (1 Bft) O-NO 67 1,4 C 1,5 C
22.01.2012 21:32 2,9 C 90 % 1001,0 hPa 0,0 l/m 8,6 km/h (2 Bft) NO 45 1,4 C 0,5 C
22.01.2012 21:37 2,9 C 90 % 1001,1 hPa 0,0 l/m 9,0 km/h (2 Bft) N-NW 337 1,4 C 0,4 C
22.01.2012 21:42 3,0 C 90 % 1001,4 hPa 0,0 l/m 3,2 km/h (1 Bft) N-NW 337 1,5 C 3,0 C
22.01.2012 21:47 2,9 C 90 % 1001,6 hPa 0,0 l/m 3,6 km/h (1 Bft) NW 315 1,4 C 2,9 C
22.01.2012 21:52 2,9 C 90 % 1001,6 hPa 0,0 l/m 3,2 km/h (1 Bft) N-NO 22 1,4 C 2,9 C
22.01.2012 21:57 2,9 C 90 % 1001,8 hPa 0,0 l/m 2,9 km/h (1 Bft) W 270 1,4 C 2,9 C
22.01.2012 22:02 3,0 C 90 % 1001,9 hPa 0,0 l/m 6,1 km/h (2 Bft) W 270 1,5 C 1,4 C
22.01.2012 22:07 3,1 C 90 % 1002,1 hPa 0,0 l/m 4,3 km/h (1 Bft) NW 315 1,6 C 3,1 C
22.01.2012 22:12 3,0 C 90 % 1002,3 hPa 0,0 l/m 10,1 km/h (2 Bft) W-NW 292 1,5 C 0,2 C
22.01.2012 22:17 3,0 C 90 % 1002,3 hPa 0,0 l/m 6,5 km/h (2 Bft) NW 315 1,5 C 1,2 C
22.01.2012 22:22 3,0 C 90 % 1002,5 hPa 0,0 l/m 7,2 km/h (2 Bft) W 270 1,5 C 1,0 C
22.01.2012 22:27 3,0 C 90 % 1002,7 hPa 0,0 l/m 11,9 km/h (2 Bft) W 270 1,5 C -0,1 C
22.01.2012 22:32 3,1 C 90 % 1003,0 hPa 0,0 l/m 3,6 km/h (1 Bft) W-NW 292 1,6 C 3,1 C
22.01.2012 22:37 3,1 C 90 % 1003,1 hPa 0,0 l/m 16,6 km/h (3 Bft) W 270 1,6 C -0,8 C
22.01.2012 22:42 3,1 C 90 % 1003,3 hPa 0,0 l/m 5,0 km/h (1 Bft) W-NW 292 1,6 C 1,9 C
22.01.2012 22:47 3,2 C 90 % 1003,4 hPa 0,0 l/m 13,0 km/h (3 Bft) W-NW 292 1,7 C -0,1 C
22.01.2012 22:52 3,2 C 90 % 1003,6 hPa 0,0 l/m 9,7 km/h (2 Bft) W 270 1,7 C 0,6 C
22.01.2012 22:57 3,2 C 89 % 1003,7 hPa 0,0 l/m 13,3 km/h (3 Bft) W-NW 292 1,6 C -0,2 C
22.01.2012 23:02 3,2 C 89 % 1003,9 hPa 0,0 l/m 8,6 km/h (2 Bft) W-NW 292 1,6 C 0,9 C
22.01.2012 23:07 3,2 C 89 % 1003,9 hPa 0,0 l/m 6,1 km/h (2 Bft) W-SW 247 1,6 C 1,6 C
22.01.2012 23:12 3,2 C 89 % 1004,1 hPa 0,0 l/m 9,7 km/h (2 Bft) NW 315 1,6 C 0,6 C
22.01.2012 23:17 3,2 C 89 % 1004,1 hPa 0,0 l/m 4,7 km/h (1 Bft) N 360 1,6 C 2,2 C
22.01.2012 23:22 3,2 C 89 % 1004,2 hPa 0,0 l/m 6,1 km/h (2 Bft) W-NW 292 1,6 C 1,6 C
22.01.2012 23:27 3,2 C 89 % 1004,3 hPa 0,0 l/m 13,3 km/h (3 Bft) W-NW 292 1,6 C -0,2 C
22.01.2012 23:32 3,2 C 89 % 1004,5 hPa 0,0 l/m 6,5 km/h (2 Bft) W 270 1,6 C 1,5 C
22.01.2012 23:37 3,2 C 89 % 1004,5 hPa 0,0 l/m 8,6 km/h (2 Bft) W 270 1,6 C 0,9 C
22.01.2012 23:42 3,2 C 89 % 1005,0 hPa 0,0 l/m 4,3 km/h (1 Bft) NW 315 1,6 C 3,2 C
22.01.2012 23:47 3,2 C 89 % 1005,0 hPa 0,0 l/m 8,6 km/h (2 Bft) NW 315 1,6 C 0,9 C
22.01.2012 23:52 3,1 C 89 % 1005,2 hPa 0,0 l/m 7,2 km/h (2 Bft) W-NW 292 1,5 C 1,1 C
22.01.2012 23:57 3,1 C 89 % 1005,3 hPa 0,0 l/m 9,7 km/h (2 Bft) W 270 1,5 C 0,5 C
_ Min-Zeit 21:22 12:32 00:07 - 20:47 - - 21:22 01:12
Minimum _ 2,9 C 79 % 996,4 hPa - 2,2 km/h (1 Bft) - - 1,4 C -1,3 C
_ Max-Zeit 11:52 00:02 23:57 01:32 09:57 - - 11:52 16:17
Maximum _ 6,4 C 90 % 1005,3 hPa 0,5 l/m 41,8 km/h
W-SW (6 Bft)
- - 3,4 C 5,3 C
Durchschnitt _ 4,6 C 87 % 998,2 hPa #3,6 l/m 16,1 km/h (3 Bft) W - 2,5 C 1,4 C
(c) by David Heller